TimeEST,TemperatureF,Dew PointF,Humidity,Sea Level PressureIn,VisibilityMPH,Wind Direction,Wind SpeedMPH,Gust SpeedMPH,PrecipitationIn,Events,Conditions,WindDirDegrees,DateUTC
12:24 AM,17.6,14.0,86,30.06,1.2,West,10.4,-,0.00,Snow,Light Snow,260,2013-01-24 05:24:00
12:35 AM,17.6,15.8,93,30.06,1.2,West,8.1,-,0.00,Snow,Light Snow,280,2013-01-24 05:35:00
12:53 AM,18.0,15.1,88,30.10,1.5,WNW,10.4,-,0.00,Snow,Light Snow,290,2013-01-24 05:53:00
1:16 AM,17.6,14.0,86,30.08,2.0,WNW,12.7,-,0.00,Snow,Light Snow,300,2013-01-24 06:16:00
1:26 AM,17.6,14.0,86,30.08,6.0,WNW,11.5,-,0.00,Snow,Light Snow,300,2013-01-24 06:26:00
1:33 AM,17.6,12.2,79,30.09,7.0,NW,16.1,20.7,0.00,Snow,Light Snow,310,2013-01-24 06:33:00
1:42 AM,17.6,12.2,79,30.10,9.0,NW,12.7,24.2,0.00,,Overcast,320,2013-01-24 06:42:00
1:53 AM,16.0,10.9,81,30.15,10.0,NW,13.8,21.9,0.00,,Mostly Cloudy,320,2013-01-24 06:53:00
2:10 AM,15.8,10.4,79,30.13,10.0,NNW,12.7,21.9,N/A,,Partly Cloudy,330,2013-01-24 07:10:00
2:53 AM,12.9,8.1,81,30.21,10.0,NNW,11.5,-,N/A,,Scattered Clouds,330,2013-01-24 07:53:00
3:53 AM,10.9,6.1,81,30.26,10.0,NW,8.1,-,N/A,,Clear,310,2013-01-24 08:53:00
4:53 AM,10.0,5.0,80,30.31,10.0,NW,10.4,-,N/A,,Clear,320,2013-01-24 09:53:00
5:53 AM,8.1,3.9,83,30.36,10.0,NW,9.2,-,N/A,,Clear,320,2013-01-24 10:53:00
7:53 AM,5.0,1.9,87,30.45,10.0,NW,6.9,-,N/A,,Clear,310,2013-01-24 12:53:00
8:53 AM,8.1,3.0,80,30.48,10.0,NW,5.8,-,N/A,,Clear,310,2013-01-24 13:53:00
9:53 AM,12.0,5.0,73,30.53,10.0,NNW,8.1,-,N/A,,Clear,340,2013-01-24 14:53:00
10:53 AM,15.1,7.0,70,30.58,10.0,North,8.1,-,N/A,,Clear,10,2013-01-24 15:53:00
11:53 AM,17.1,9.0,71,30.60,10.0,NNE,10.4,-,N/A,,Clear,30,2013-01-24 16:53:00
12:53 PM,19.0,10.0,68,30.57,10.0,Variable,4.6,-,N/A,,Clear,0,2013-01-24 17:53:00
1:53 PM,21.0,10.0,63,30.56,10.0,East,3.5,-,N/A,,Scattered Clouds,80,2013-01-24 18:53:00
2:53 PM,21.0,7.0,55,30.56,10.0,Calm,Calm,-,N/A,,Partly Cloudy,0,2013-01-24 19:53:00
3:53 PM,19.9,3.0,48,30.56,10.0,Calm,Calm,-,N/A,,Clear,0,2013-01-24 20:53:00
4:53 PM,19.0,6.1,57,30.56,10.0,East,3.5,-,N/A,,Clear,90,2013-01-24 21:53:00
5:53 PM,18.0,5.0,57,30.57,10.0,NE,3.5,-,N/A,,Clear,50,2013-01-24 22:53:00
6:53 PM,17.1,5.0,59,30.57,10.0,East,4.6,-,N/A,,Clear,80,2013-01-24 23:53:00
7:53 PM,16.0,5.0,62,30.57,10.0,East,4.6,-,N/A,,Clear,100,2013-01-25 00:53:00
8:53 PM,16.0,6.1,65,30.55,10.0,ESE,5.8,-,N/A,,Clear,120,2013-01-25 01:53:00
9:53 PM,16.0,7.0,68,30.53,10.0,SE,6.9,-,N/A,,Clear,130,2013-01-25 02:53:00
10:53 PM,16.0,8.1,71,30.53,10.0,ESE,5.8,-,N/A,,Clear,120,2013-01-25 03:53:00
11:53 PM,16.0,8.1,71,30.50,10.0,ESE,5.8,-,N/A,,Scattered Clouds,120,2013-01-25 04:53:00